TimeCST,TemperatureF,Dew PointF,Humidity,Sea Level PressureIn,VisibilityMPH,Wind Direction,Wind SpeedMPH,Gust SpeedMPH,PrecipitationIn,Events,Conditions,WindDirDegrees,DateUTC
12:15 AM,37.4,32.0,81,30.35,10.0,Calm,Calm,-,N/A,,Clear,0,2012-11-19 06:15:00
12:35 AM,37.4,33.8,87,30.34,10.0,Calm,Calm,-,N/A,,Clear,0,2012-11-19 06:35:00
12:55 AM,37.4,33.8,87,30.34,10.0,Calm,Calm,-,N/A,,Clear,0,2012-11-19 06:55:00
1:15 AM,41.0,33.8,76,30.33,10.0,Calm,Calm,-,N/A,,Clear,0,2012-11-19 07:15:00
1:35 AM,41.0,33.8,76,30.33,10.0,Calm,Calm,-,N/A,,Clear,0,2012-11-19 07:35:00
1:55 AM,41.0,32.0,70,30.33,10.0,Calm,Calm,-,N/A,,Clear,0,2012-11-19 07:55:00
2:15 AM,37.4,32.0,81,30.32,10.0,Calm,Calm,-,N/A,,Clear,0,2012-11-19 08:15:00
2:35 AM,37.4,32.0,81,30.32,10.0,Calm,Calm,-,N/A,,Clear,0,2012-11-19 08:35:00
2:55 AM,37.4,33.8,87,30.32,10.0,Calm,Calm,-,N/A,,Clear,0,2012-11-19 08:55:00
3:15 AM,35.6,32.0,87,30.32,10.0,Calm,Calm,-,N/A,,Clear,0,2012-11-19 09:15:00
3:35 AM,37.4,33.8,87,30.32,10.0,Calm,Calm,-,N/A,,Clear,0,2012-11-19 09:35:00
3:55 AM,35.6,33.8,93,30.31,10.0,Calm,Calm,-,N/A,,Clear,0,2012-11-19 09:55:00
4:15 AM,37.4,33.8,87,30.31,10.0,Calm,Calm,-,N/A,,Clear,0,2012-11-19 10:15:00
4:35 AM,37.4,33.8,87,30.32,10.0,Calm,Calm,-,N/A,,Clear,0,2012-11-19 10:35:00
4:55 AM,37.4,33.8,87,30.31,10.0,ESE,4.6,-,N/A,,Clear,120,2012-11-19 10:55:00
5:15 AM,41.0,33.8,76,30.31,10.0,Calm,Calm,-,N/A,,Clear,0,2012-11-19 11:15:00
5:35 AM,41.0,33.8,76,30.31,10.0,ESE,3.5,-,N/A,,Clear,120,2012-11-19 11:35:00
6:52 AM,41.0,33.8,76,30.32,20.0,SE,6.9,-,N/A,,Mostly Cloudy,130,2012-11-19 12:52:00
7:54 AM,42.8,37.4,81,30.33,20.0,SE,5.8,-,N/A,,Mostly Cloudy,140,2012-11-19 13:54:00
8:58 AM,53.6,35.6,51,30.32,20.0,SSE,8.1,-,N/A,,Mostly Cloudy,150,2012-11-19 14:58:00
9:54 AM,57.2,39.2,51,30.32,20.0,South,6.9,-,N/A,,Mostly Cloudy,190,2012-11-19 15:54:00
10:52 AM,60.8,35.6,39,30.31,20.0,SW,8.1,-,N/A,,Mostly Cloudy,220,2012-11-19 16:52:00
11:57 AM,62.6,35.6,37,30.27,20.0,SW,8.1,-,N/A,,Overcast,220,2012-11-19 17:57:00
12:55 PM,62.6,35.6,37,30.24,20.0,South,5.8,-,N/A,,Mostly Cloudy,190,2012-11-19 18:55:00
1:55 PM,64.4,33.8,32,30.23,20.0,SSW,5.8,-,N/A,,Mostly Cloudy,200,2012-11-19 19:55:00
2:55 PM,62.6,39.2,42,30.21,20.0,SSW,9.2,-,N/A,,Overcast,200,2012-11-19 20:55:00
3:55 PM,59.0,39.2,48,30.21,20.0,SSW,5.8,-,N/A,,Overcast,210,2012-11-19 21:55:00
4:55 PM,57.2,39.2,51,30.20,10.0,South,5.8,-,N/A,,Overcast,180,2012-11-19 22:55:00
5:55 PM,57.2,37.4,48,30.22,10.0,South,5.8,-,N/A,,Overcast,180,2012-11-19 23:55:00
6:55 PM,57.2,37.4,48,30.20,10.0,SSE,5.8,-,N/A,,Overcast,160,2012-11-20 00:55:00
7:15 PM,53.6,39.2,58,30.20,10.0,Calm,Calm,-,N/A,,Overcast,0,2012-11-20 01:15:00
7:35 PM,55.4,39.2,54,30.20,10.0,South,4.6,-,N/A,,Unknown,190,2012-11-20 01:35:00
7:55 PM,55.4,37.4,51,30.20,10.0,Calm,Calm,-,N/A,,Overcast,0,2012-11-20 01:55:00
8:15 PM,53.6,39.2,58,30.19,10.0,South,3.5,-,N/A,,Overcast,180,2012-11-20 02:15:00
8:35 PM,53.6,37.4,54,30.19,10.0,South,4.6,-,N/A,,Mostly Cloudy,170,2012-11-20 02:35:00
8:55 PM,53.6,37.4,54,30.19,10.0,South,4.6,-,N/A,,Clear,190,2012-11-20 02:55:00
9:15 PM,50.0,37.4,62,30.19,10.0,South,4.6,-,N/A,,Mostly Cloudy,180,2012-11-20 03:15:00
9:35 PM,50.0,37.4,62,30.18,10.0,South,5.8,-,N/A,,Scattered Clouds,170,2012-11-20 03:35:00
9:55 PM,51.8,37.4,58,30.18,10.0,SSW,4.6,-,N/A,,Clear,210,2012-11-20 03:55:00
10:15 PM,51.8,37.4,58,30.17,10.0,Calm,Calm,-,N/A,,Mostly Cloudy,0,2012-11-20 04:15:00
10:35 PM,53.6,37.4,54,30.17,10.0,Calm,Calm,-,N/A,,Overcast,0,2012-11-20 04:35:00
10:55 PM,51.8,41.0,67,30.17,10.0,South,3.5,-,N/A,,Overcast,170,2012-11-20 04:55:00
11:15 PM,53.6,39.2,58,30.16,10.0,South,5.8,-,N/A,,Overcast,180,2012-11-20 05:15:00
11:35 PM,53.6,39.2,58,30.16,10.0,South,5.8,-,N/A,,Overcast,190,2012-11-20 05:35:00
11:55 PM,53.6,37.4,54,30.16,10.0,Calm,Calm,-,N/A,,Overcast,0,2012-11-20 05:55:00